[TLELIST] Archives

 

Current TLEs

March 18th 2008 PDT

HST 1 20580U 90037B 08076.61571588 .00000420 00000-0 19736-4 0 948 2 20580 028.4677 206.9820 0003919 124.5240 235.5722 15.00350303781066 ISS (ZARYA) 1 25544U 98067A 08077.52717446 -.00000506 00000-0 90048-6 0 1292 2 25544 051.6394 128.8961 0000658 290.9053 215.2106 15.76303035534060 CXO 1 25867U 99040B 08072.33333333 .00000224 00000-0 10000-3 0 1771 2 25867 063.3008 082.9471 6662777 280.1753 352.0919 00.37803691 3265 ____________________________________________________________________ These 2-Line ...Continue Reading

Current TLEs

March 17th 2008 PDT

HST 1 20580U 90037B 08074.75314873 +.00000401 +00000-0 +18248-4 0 01030 2 20580 028.4680 219.1344 0003865 103.6025 256.4993 15.00349304780785 ISS (ZARYA) 1 25544U 98067A 08076.51194446 .00018887 00000-0 12024-3 0 1238 2 25544 051.6378 134.1254 0001149 260.1337 240.5524 15.76479734533904 CXO 1 25867U 99040B 08072.33333333 .00000224 00000-0 10000-3 0 1771 2 25867 063.3008 082.9471 6662777 280.1753 352.0919 00.37803691 3265 ____________________________________________________________________ These 2-Line ...Continue Reading

Current TLEs

March 16th 2008 PDT

HST 1 20580U 90037B 08073.75534345 .00000418 00000-0 19564-4 0 924 2 20580 028.4679 225.6413 0003876 092.4138 267.6893 15.00348907780639 ISS (ZARYA) 1 25544U 98067A 08075.50902778 .00014972 00000-0 96375-4 0 1177 2 25544 051.6376 139.2941 0001173 244.2999 320.7279 15.76436500533749 CXO 1 25867U 99040B 08072.33333333 .00000224 00000-0 10000-3 0 1771 2 25867 063.3008 082.9471 6662777 280.1753 352.0919 00.37803691 3265 ____________________________________________________________________ These 2-Line ...Continue Reading

Current TLEs

March 15th 2008 PDT

HST 1 20580U 90037B 08073.75534345 .00000418 00000-0 19564-4 0 924 2 20580 028.4679 225.6413 0003876 092.4138 267.6893 15.00348907780639 ISS (ZARYA) 1 25544U 98067A 08074.48202803 .00018107 00000-0 11584-3 0 1100 2 25544 051.6391 144.5867 0001100 237.8458 254.9002 15.76404231533580 CXO 1 25867U 99040B 08072.33333333 .00000224 00000-0 10000-3 0 1771 2 25867 063.3008 082.9471 6662777 280.1753 352.0919 00.37803691 3265 ____________________________________________________________________ These 2-Line ...Continue Reading

Current TLEs

March 14th 2008 PDT

HST 1 20580U 90037B 08071.82625173 +.00000381 +00000-0 +16650-4 0 00966 2 20580 028.4682 238.2205 0003864 072.0656 288.0354 15.00347678780349 ISS (ZARYA) 1 25544U 98067A 08073.33259575 .00028716 00000-0 18138-3 0 1043 2 25544 051.6370 150.5072 0001279 243.0751 202.2610 15.76371282533405 CXO 1 25867U 99040B 08072.33333333 .00000224 00000-0 10000-3 0 1771 2 25867 063.3008 082.9471 6662777 280.1753 352.0919 00.37803691 3265 ____________________________________________________________________ These 2-Line ...Continue Reading

Current TLEs

March 13th 2008 PDT

HST 1 20580U 90037B 08070.82844427 +.00000404 +00000-0 +18469-4 0 01046 2 20580 028.4681 244.7275 0003813 061.5784 298.5192 15.00347384780199 ISS (ZARYA) 1 25544U 98067A 08072.52769676 .00027591 00000-0 17483-3 0 985 2 25544 051.6370 154.6574 0001377 238.9578 315.6034 15.76321575533270 CXO 1 25867U 99040B 08072.33333333 .00000224 00000-0 10000-3 0 1771 2 25867 063.3008 082.9471 6662777 280.1753 352.0919 00.37803691 3265 ____________________________________________________________________ These 2-Line ...Continue Reading

Current TLEs

March 12th 2008 PDT

HST 1 20580U 90037B 08071.16104670 .00000404 00000-0 18482-4 0 902 2 20580 028.4681 242.5586 0003840 064.8371 295.2613 15.00347536780245 ISS (ZARYA) 1 25544U 98067A 08071.36697444 .00026865 00000-0 17085-3 0 902 2 25544 051.6387 160.6387 0002052 220.5225 222.9055 15.76254185533099 CXO 1 25867U 99040B 08069.70833333 .00000328 00000-0 10000-3 0 1767 2 25867 063.2784 083.0452 6661577 280.1812 354.7697 00.37809370 3250 ____________________________________________________________________ These 2-Line ...Continue Reading

Current TLEs

March 11th 2008 PDT

HST 1 20580U 90037B 08069.83063686 .00000366 00000-0 15506-4 0 893 2 20580 028.4685 251.2415 0003505 051.3069 308.7835 15.00346692780046 ISS (ZARYA) 1 25544U 98067A 08070.40878108 .00023772 00000-0 15224-3 0 844 2 25544 051.6389 165.5710 0001770 228.0693 174.4591 15.76173545532942 CXO 1 25867U 99040B 08069.70833333 .00000328 00000-0 10000-3 0 1767 2 25867 063.2784 083.0452 6661577 280.1812 354.7697 00.37809370 3250 ____________________________________________________________________ These 2-Line ...Continue Reading

Current TLEs

March 10th 2008 PDT

HST 1 20580U 90037B 08067.90154031 +.00000378 +00000-0 +16486-4 0 01021 2 20580 028.4687 263.8238 0003390 029.7806 330.2976 15.00346012779758 ISS (ZARYA) 1 25544U 98067A 08069.53348130 .00021365 00000-0 13760-3 0 785 2 25544 051.6381 170.0806 0001732 218.7041 253.8545 15.76119987532808 CXO 1 25867U 99040B 08069.70833333 .00000328 00000-0 10000-3 0 1767 2 25867 063.2784 083.0452 6661577 280.1812 354.7697 00.37809370 3250 ____________________________________________________________________ These 2-Line ...Continue Reading

Current TLEs

March 9th 2008 PDT

HST 1 20580U 90037B 08066.90373099 .00000405 00000-0 18523-4 0 874 2 20580 028.4687 270.3312 0003352 018.6375 341.4336 15.00345764779601 ISS (ZARYA) 1 25544U 98067A 08068.39213491 .00020307 00000-0 13131-3 0 708 2 25544 051.6380 175.9590 0001805 212.3047 259.9378 15.76066021532629 CXO 1 25867U 99040B 08067.08333333 .00000335 00000-0 10000-3 0 1758 2 25867 063.2578 083.1285 6657936 280.1712 357.4969 00.37808950 3243 ____________________________________________________________________ These 2-Line ...Continue Reading
  • This mailing list is a public mailing list - anyone may join or leave, at any time.
  • This mailing list is announce-only.

International Space Station (ISS) / Hubble Space Telescope (HST) / Chandra X-Ray Observatory Orbital Data via EMAIL

Privacy Policy:

Private list